Location: Drocourt
(49.0571°N, 1.7669°E)
Time: 20:48:42
(UTC+00:00)

S-56A Canister/Altair - Pass Details

Date: 15 April 2024
Orbit: 638 x 2488 km, 38.9° (Epoch: 20 May)

Event Time Altitude Azimuth Distance (km) Brightness Sun altitude
Rises 23:43:36 0° 274° (W) 4,771 11.7 -30.7°
Reaches altitude 10° 23:47:02 10° 262° (W) 4,051 11.1 -30.7°
Enters shadow 23:51:47 23° 238° (WSW) 3,435 10.5 -30.7°
Maximum altitude 23:55:52 28° 210° (SSW) 3,394 - -30.7°
Drops below altitude 10° 00:06:46 10° 161° (SSE) 5,046 - -30.6°
Sets 00:11:44 0° 151° (SSE) 6,138 - -30.6°
